Lid_Strength_Index
1 1 1 1 1 1 1 0 -0 -0 -0 -0 -1 -1 -0 -1 -0 -0 0 0 0 0
1 1 1 0 1 0 -0 0 -0 -0 -0 -0 -0 -0 -1 -0 -0 -0 -0 -0 0 0
1 0 0 0 1 0 -0 -0 -0 -0 -0 -0 -1 -1 -0 -0 -0 0 0 0 0 0
1 0 0 1 0 0 -0 -0 -0 -0 -0 0 0 -0 -0 0 0 0 0 -0 0 0
1 0 1 1 0 -0 0 -0 -0 -0 0 0 -0 -0 0 1 0 1 1 0 0 1
1 1 1 1 0 0 0 -0 -0 -0 0 0 0 0 0 0 0 0 0 0 0 0
1 1 1 1 0 0 0 0 -0 -0 0 0 0 0 0 0 0 0 0 0 0 0
1 1 1 1 0 0 0 0 0 0 0 -0 -0 0 0 0 0 0 1 0 -0 -0
1 1 1 1 1 1 1 0 0 0 0 1 2 5 4 3 2 1 1 1 0 0
2 2 2 2 2 2 1 1 2 1 2 2 3 6 6 4 3 1 0 0 0 0
2 2 2 1 1 1 1 1 1 2 3 4 6 8 8 6 4 2 0 0 0 0
1 2 2 2 1 1 1 1 3 4 5 5 7 8 7 5 3 1 3 4 4 4
1 1 2 1 1 1 1 3 5 7 8 8 8 8 7 5 1 4 5 6 6 8
1 2 1 1 2 3 4 6 7 8 8 9 8 8 8 6 3 4 4 4 5 6